カタログに戻る

STARLINK-37285

運用中通信SSO
NORAD 68626·PAYLOAD·🇺🇸 United States

打ち上げ Apr 5, 2026 から Vandenberg Space Force Base

Loading…

次のパス (今後24時間)

TLE

最新Source: CelesTrak SupGP

元期: Sep 14, 2026, 23:20 UTC

1 68626C 26073AA  26257.97270833  .00080272  00000+0  24923-2 0  2574
2 68626  97.2847  96.9074 0001768  94.1899  93.2275 15.33391708    13

AllMySatでSTARLINK-37285をリアルタイム追跡

Download on the App Store